Location: Clermont
(50.2608°N, 4.3172°E)
Time: 15:40:19
(UTC+00:00)

Cosmos 1934 Rocket - Pass Details

Date: 13 August 2020
Orbit: 937 x 1000 km, 83.0° (Epoch: 18 September)

Event Time Altitude Azimuth Distance (km) Brightness Sun altitude
Rises 19:42:27 0° 170° (S) 3,707 6.6 -6.2°
Reaches altitude 10° 19:45:01 10° 166° (SSE) 2,764 6.0 -6.5°
Maximum altitude 19:51:09 53° 91° (E) 1,221 4.3 -7.3°
Drops below altitude 10° 19:57:18 10° 17° (NNE) 2,774 6.6 -8.2°
Sets 19:59:53 0° 13° (NNE) 3,721 7.3 -8.5°
